Regional Weather Roundup
Issued by NWS

Home | Current Version | Previous Version | Text Only | Print | Product List | Glossary On
Versions: 1 2 3 4 5 6 7 8 9 10 11 12 13 14 15 16 17 18 19 20 21 22 23 24 25 26 27 28 29 30 31 32 33 34 35 36 37 38 39 40 41 42 43 44 45 46 47 48 49
000
ASUS46 KSEW 290810
RWRWA

WASHINGTON REGIONAL WEATHER ROUNDUP
NATIONAL WEATHER SERVICE SEATTLE WA
100 AM PDT FRI AUG 29 2014

NOTE:"FAIR" INDICATES FEW OR NO CLOUDS BELOW 12,000 FEET WITH NO
SIGNIFICANT WEATHER AND/OR OBSTRUCTIONS TO VISIBILITY.

WAZ505-507>509-290900-
SEATTLE, TACOMA, EVERETT, AND VICINITY

CITY           SKY/WX    TMP DP  RH WIND       PRES   REMARKS
EVERETT        PTCLDY    59  54  83 CALM      30.01F
BOEING FIELD   PTCLDY    65  58  78 SE3       30.00F
RENTON         CLOUDY    66  61  84 S6        30.00F
SEATAC AIRPORT PTCLDY    62  57  83 CALM      30.02F
JBLM-MCCHORD   CLEAR     58  57  97 W3        30.01F
PUYALLUP       NOT AVBL
JBLM-FT LEWIS  CLEAR     58  56  95 SE2       30.01F
TACOMA NARROWS MOCLDY    61  57  87 SW3       30.01F
$$

WAZ001-503-506-510-514-515-290900-
NORTH INTERIOR

CITY           SKY/WX    TMP DP  RH WIND       PRES   REMARKS
BELLINGHAM     CLOUDY    63  56  78 S9        29.97F
FRIDAY HARBOR  CLOUDY    58  50  75 CALM      29.99F
EASTSOUND      CLOUDY    59  52  77 S10       29.96S
PORT ANGELES   CLOUDY    58  50  75 W8        30.01F
NAS WHIDBEY    MOCLDY    59  51  75 S3        30.01S
BURLINGTON     MOCLDY    57  54  88 SW5       30.01S
$$

WAZ020-022-039-040-504-511-512-290900-
SOUTHWEST INTERIOR

CITY           SKY/WX    TMP DP  RH WIND       PRES   REMARKS
SHELTON        CLOUDY    59  56  89 SW8       29.99F
OLYMPIA        PTCLDY    55  53  93 CALM      30.01F
CHEHALIS       CLOUDY    59  59 100 CALM      30.02F
KELSO          CLOUDY    66  57  72 CALM      30.05S
VANCOUVER      CLEAR     66  58  75 NW5       30.00S
SCAPPOOSE, OR  CLEAR     64  58  80 NW6       29.99F
PORTLAND, OR   PTCLDY    66  60  81 NW6       30.00F
$$

WAZ021-516-517-290900-
WASHINGTON COAST

CITY           SKY/WX    TMP DP  RH WIND       PRES   REMARKS
FORKS          FOG       51  51 100 CALM      30.03F VSB 1/2
HOQUIAM        CLOUDY    57  56  96 SW6       30.04S
ASTORIA, OR    CLOUDY    62  58  86 SW3       30.02F
$$

WAZ019-023-024-040-518-519-290900-
CASCADE MOUNTAINS AND COLUMBIA GORGE

CITY           SKY/WX    TMP DP  RH WIND       PRES   REMARKS
STAMPEDE PASS  NOT AVBL
TROUTDALE, OR  PTCLDY    67  60  78 CALM      29.99S
THE DALLES, OR PTCLDY    71  53  52 CALM      29.94S
$$

WAZ026-027-041>044-520-521-290900-
EAST SLOPES

CITY           SKY/WX    TMP DP  RH WIND       PRES   REMARKS
OMAK           PTCLDY    65  49  56 NW7       29.92F
WENATCHEE      PTCLDY    72  48  42 W18       29.93F
ELLENSBURG     MOCLDY    66  52  60 NW18      29.98S
YAKIMA         CLOUDY    71  53  52 NW3       29.96R
$$

WAZ028-034-035-290900-
COLUMBIA BASIN

CITY           SKY/WX    TMP DP  RH WIND       PRES   REMARKS
EPHRATA        PTCLDY    70  46  42 NW9       29.91S
MOSES LAKE     MOCLDY    68  48  48 CALM      29.93S
PASCO          MOCLDY    69  52  54 NE5       29.92S
HERMISTON, OR  PTCLDY    65  51  60 S8        29.94R
$$

WAZ036>038-290900-
NORTHEAST WASHINGTON

CITY           SKY/WX    TMP DP  RH WIND       PRES   REMARKS
SPOKANE GEIGER CLOUDY    64  43  46 SE7       29.96R
SPOKANE FELTS  MOCLDY    62  44  51 NE3       29.95R
FAIRCHILD AFB  CLOUDY    61  44  54 SW5       29.97R
COEURDALENE,ID PTCLDY    64  45  48 S9        29.96R
DEER PARK      MOCLDY    54  41  61 NE3       29.95S
$$

WAZ029>033-290900-
SOUTHEAST WASHINGTON

CITY           SKY/WX    TMP DP  RH WIND       PRES   REMARKS
PULLMAN        PTCLDY    58  41  53 CALM      30.01S
LEWISTON, ID   CLEAR     64  44  48 SE5       29.95S
WALLA WALLA    PTCLDY    70  44  39 S9        29.97R
PENDLETON, OR  CLEAR     59  37  44 E8        29.98R
$$



USA.gov is the U.S. government's official web portal to all federal, state and local government web resources and services.